[[{"header":{"parameterUnit":"m.s-1","parameterCategory":1,"la1":30.2991,"la2":30.254,"lo1":-89.0895,"lo2":-89.0444,"dy":0.0017,"dx":0.0017,"nx":28,"ny":28,"refTime":"2025-07-13T21:00:00:Z","depth":0,"parameterNumber":2,"parameterNumberName":"U-component_of_WINDS"},"data":[0,0,0,0,0,0,0,0,0,0,0,0,0,0,0,0,0,0,0,0,0,0,0,0,0,0,0,0,0,0,0,0,0,0,0,0,0,0,0,0,0,0,0,0,0,0,0,0,0,0,0,0,0,0,0,0,0,0,4.1406,4.1408,0,4.1605,4.1607,4.1609,4.1586,4.1583,4.1579,4.1576,4.1783,4.1791,4.18,0,0,0,0,0,0,0,0,0,0,0,0,0,4.1008,4.1015,4.1406,4.1408,4.1411,4.1604,4.1607,4.161,4.1586,4.1583,4.1579,4.1575,4.178,4.179,4.18,0,0,0,0,0,0,0,0,0,0,0,0,0,4.1191,4.1017,4.1405,4.1422,4.1426,4.1604,4.1607,4.1611,4.1587,4.1582,4.1578,4.1573,4.1777,4.1789,4.1802,4.1977,0,0,4.1841,4.1846,0,0,0,0,0,0,0,0,4.1181,4.1206,4.1417,4.1421,4.1426,4.1566,4.1542,4.1733,4.1588,4.1526,4.1576,4.1571,4.1715,4.1732,4.178,4.1986,4.1995,4.1842,4.185,4.1855,4.1859,0,0,0,0,0,0,0,4.1168,4.1197,4.1485,4.142,4.1426,4.1421,4.1441,4.1579,4.1645,4.1531,4.153,4.1554,4.1716,4.1768,4.1785,4.1998,4.1841,4.1853,4.1861,4.1866,4.2357,4.2362,0,0,0,0,0,0,4.1151,4.1186,4.1478,4.1491,4.1289,4.1432,4.1455,4.1526,4.1643,4.1657,4.1557,4.1552,4.1749,4.177,4.1792,4.2004,4.1855,4.1867,4.1874,4.2351,4.2358,4.2364,0,0,0,0,0,0,4.1142,4.1177,4.147,4.1338,4.1375,4.1444,4.1523,4.1532,4.1584,4.1663,4.1675,4.1598,4.1746,4.1774,4.193,4.2011,4.1873,4.1884,4.2345,4.2353,4.2361,4.2429,0,0,0,0,0,0,4.1131,4.1174,4.1241,4.134,4.1382,4.1605,4.1528,4.1539,4.1606,4.16,4.1705,4.1717,4.1744,4.1912,4.1943,4.2026,4.1894,4.2338,4.2349,4.2358,4.242,4.2438,4.2454,0,0,0,0,0,4.1117,4.1253,4.1244,4.128,4.1467,4.161,4.1634,4.1661,4.1612,4.168,4.1731,4.1714,4.1997,4.1928,4.1963,4.2051,4.2333,4.2346,4.2358,4.2412,4.2435,4.2454,0,0,0,0,0,0,4.1163,4.1266,4.1258,4.143,4.1511,4.1605,4.1692,4.1684,4.1782,4.1773,4.1803,4.1827,4.1984,4.2033,4.1955,4.2225,4.2158,4.2178,4.2188,4.221,4.2227,4.2211,4.1905,0,0,0,0,0,4.1192,4.1299,4.1384,4.1528,4.1569,4.1623,4.1686,4.17,4.1786,4.182,4.1882,4.1967,4.2074,4.2145,4.2249,4.2427,4.2449,4.2504,4.2521,4.2535,4.2552,4.2649,4.2674,4.2404,4.2404,4.2403,0,0,4.1256,4.1326,4.1391,4.1539,4.1603,4.1713,4.1652,4.1771,4.1853,4.1839,4.1989,4.2038,4.2134,4.2302,4.2379,4.2348,4.2631,4.2551,4.2561,4.257,4.2664,4.2689,4.2712,4.2412,4.241,4.2409,0,0,4.1427,4.1491,4.1617,4.1682,4.178,4.1815,4.1846,4.1941,4.1973,4.2124,4.2115,4.2213,4.2398,4.2467,4.2526,4.2722,4.271,4.2755,4.2845,4.2939,4.296,4.2979,4.3049,4.3073,4.2772,4.2772,4.2772,0,4.1494,4.1658,4.1683,4.1803,4.1868,4.1858,4.1986,4.2049,4.2176,4.2221,4.2184,4.2415,4.248,4.2663,4.271,4.2759,4.2794,4.2743,4.2955,4.2974,4.2993,4.3059,4.3085,4.2777,4.2776,4.2776,4.2775,0,4.1735,4.1849,4.1939,4.206,4.2136,4.2259,4.2303,4.2376,4.2383,4.2423,4.2577,4.2653,4.2772,4.2816,4.2825,4.3001,4.2978,4.2948,4.2881,4.3023,4.3085,4.3111,4.2783,4.2782,4.278,4.2779,0,0,4.1941,4.2074,4.2106,4.2161,4.2267,4.2357,4.2479,4.2594,4.2656,4.2744,4.2848,4.3004,4.2976,4.3043,4.3059,4.3142,4.3292,4.3102,4.3104,4.3134,4.3489,4.3511,4.354,4.3284,4.3289,4.3293,4.3481,0,4.2123,4.2339,4.2364,4.2557,4.2662,4.2654,4.2761,4.2838,4.2878,4.2974,4.3018,4.3128,4.3084,4.3124,4.3205,4.3256,4.3363,4.3243,4.3381,4.3386,4.3357,4.3573,4.3596,4.3769,4.3506,4.351,4.3513,0,4.2363,4.2456,4.2659,4.2749,4.2795,4.289,4.2997,4.3088,4.3176,4.3199,4.3273,4.3278,4.3406,4.3334,4.3509,4.3427,4.3485,4.3518,4.3526,4.3539,4.3457,4.3592,4.3825,4.3851,4.3552,4.3549,4.3546,0,4.2492,4.2668,4.2812,4.2859,4.2969,4.3036,4.3085,4.3168,4.3234,4.3328,4.3371,4.3479,4.3538,4.3621,4.3656,4.36,4.3829,4.376,4.3852,4.3851,4.39,4.3897,4.4146,4.3939,4.3939,4.3938,4.3938,0,4.2692,4.2816,4.2871,4.296,4.3098,4.3127,4.3263,4.331,4.3383,4.3481,4.3481,4.3573,4.3612,4.3711,4.3738,4.3879,4.3906,4.3928,4.3934,4.3928,4.3925,4.3966,4.3955,4.3945,4.3944,4.3942,4.3941,0,4.286,4.2902,4.3057,4.3148,4.3174,4.3272,4.335,4.3436,4.3474,4.3597,4.3628,4.3688,4.3804,4.3846,4.3987,4.4006,4.4168,4.4165,4.4139,4.414,4.4229,4.422,4.4513,4.4553,4.432,4.4322,4.4324,0,4.2984,4.3079,4.3179,4.3244,4.3295,4.3399,4.3467,4.3498,4.3569,4.3675,4.3748,4.3862,4.3955,4.414,4.4197,4.4305,4.4303,4.4399,4.4319,4.431,4.4304,4.4297,4.4307,4.4413,4.4416,4.4417,4.4419,0,4.32,4.3215,4.3312,4.3417,4.3497,4.3581,4.3663,4.3716,4.3759,4.3839,4.3956,4.4028,4.4171,4.4284,4.4394,4.4446,4.444,4.4443,4.447,4.4465,4.4445,4.4456,4.4178,4.4437,4.4435,4.4434,4.4433,4.4432,4.3349,4.3433,4.3516,4.3624,4.3688,4.3764,4.3848,4.3896,4.3994,4.4112,4.4125,4.425,4.4335,4.4482,4.4538,4.4637,4.4611,4.465,4.466,4.4669,4.4675,4.443,4.4657,4.4657,4.4656,4.4656,4.4656,0,4.3564,4.3617,4.3716,4.3829,4.3913,4.3899,4.3988,4.406,4.4171,4.4249,4.434,4.4474,4.4584,4.4649,4.476,4.4827,4.4827,4.4854,4.485,4.4861,4.4692,4.4657,4.4852,4.4852,4.4852,4.4852,4.4852,4.4852,4.3686,4.3826,4.3852,4.4024,4.4076,4.4198,4.425,4.432,4.4382,4.4531,4.4622,4.4663,4.4737,4.4852,4.4952,4.4968,4.5009,4.5039,4.5053,4.4894,4.4873,4.4854,4.4821,4.5048,4.5048,4.5213,4.5215,4.5216]},{"header":{"parameterUnit":"m.s-1","parameterCategory":1,"la1":30.2991,"la2":30.254,"lo1":-89.0895,"lo2":-89.0444,"dy":0.0017,"dx":0.0017,"nx":28,"ny":28,"refTime":"2025-07-13T21:00:00:Z","depth":0,"parameterNumber":3,"parameterNumberName":"V-component_of_WINDS"},"data":[0,0,0,0,0,0,0,0,0,0,0,0,0,0,0,0,0,0,0,0,0,0,0,0,0,0,0,0,0,0,0,0,0,0,0,0,0,0,0,0,0,0,0,0,0,0,0,0,0,0,0,0,0,0,0,0,0,0,0.271,0.2709,0,0.2691,0.2691,0.2691,0.2662,0.2662,0.2661,0.2661,0.2643,0.2643,0.2643,0,0,0,0,0,0,0,0,0,0,0,0,0,0.272,0.272,0.271,0.2709,0.2709,0.2691,0.2691,0.2691,0.2663,0.2662,0.2661,0.2661,0.2643,0.2643,0.2643,0,0,0,0,0,0,0,0,0,0,0,0,0,0.271,0.272,0.271,0.2693,0.2691,0.2692,0.2691,0.2691,0.2663,0.2662,0.2661,0.266,0.2643,0.2643,0.2643,0.2659,0,0,0.2643,0.2643,0,0,0,0,0,0,0,0,0.271,0.2709,0.2696,0.2694,0.2692,0.2678,0.2688,0.268,0.2663,0.2674,0.2661,0.266,0.2656,0.2655,0.2653,0.2658,0.2657,0.2643,0.2643,0.2643,0.2643,0,0,0,0,0,0,0,0.2711,0.271,0.2702,0.2695,0.2693,0.2686,0.2684,0.2687,0.2669,0.2673,0.267,0.2669,0.2655,0.2653,0.2652,0.2657,0.2643,0.2643,0.2643,0.2643,0.2673,0.2674,0,0,0,0,0,0,0.2714,0.2711,0.2703,0.2702,0.2699,0.2687,0.2684,0.2684,0.2669,0.2666,0.2669,0.2667,0.2653,0.2652,0.2652,0.2668,0.2643,0.2643,0.2644,0.2672,0.2673,0.2674,0,0,0,0,0,0,0.2715,0.2714,0.2704,0.2706,0.2704,0.2687,0.2687,0.2684,0.2682,0.2667,0.2663,0.2671,0.2653,0.2652,0.2657,0.2667,0.2644,0.2644,0.2671,0.2672,0.2673,0.2702,0,0,0,0,0,0,0.2715,0.2714,0.272,0.2706,0.2704,0.271,0.2688,0.2684,0.2682,0.2679,0.2667,0.2665,0.2652,0.2657,0.2657,0.2667,0.2644,0.267,0.2672,0.2673,0.27,0.2704,0.2708,0,0,0,0,0,0.2715,0.2729,0.2721,0.272,0.2711,0.271,0.2709,0.2694,0.2683,0.2689,0.2678,0.2665,0.2666,0.2658,0.2658,0.2668,0.267,0.2671,0.2673,0.2699,0.2704,0.2708,0,0,0,0,0,0,0.2746,0.2727,0.2717,0.2727,0.272,0.2706,0.2713,0.27,0.2697,0.2694,0.2676,0.2673,0.2681,0.2675,0.2666,0.2681,0.2666,0.2667,0.2685,0.269,0.2693,0.2695,0.2644,0,0,0,0,0,0.2754,0.2755,0.2738,0.2749,0.2746,0.273,0.2729,0.2718,0.271,0.2707,0.2698,0.2691,0.2689,0.2689,0.2687,0.2699,0.2696,0.2706,0.2709,0.2712,0.2714,0.2719,0.2723,0.268,0.268,0.268,0,0,0.277,0.276,0.2762,0.2754,0.2748,0.2749,0.2728,0.273,0.2731,0.2708,0.2712,0.2705,0.2696,0.2704,0.2707,0.2699,0.2725,0.2715,0.2717,0.2717,0.2721,0.2725,0.2729,0.2681,0.2681,0.268,0,0,0.28,0.2793,0.28,0.2794,0.2784,0.2773,0.2774,0.2761,0.2755,0.2759,0.2741,0.2741,0.274,0.2734,0.2731,0.2757,0.2744,0.2757,0.2776,0.2781,0.2784,0.2787,0.2796,0.28,0.2759,0.2759,0.2759,0,0.2822,0.2823,0.2806,0.2809,0.2806,0.2784,0.2791,0.2786,0.2776,0.2774,0.2765,0.2761,0.2754,0.276,0.2766,0.2765,0.2766,0.2759,0.2785,0.2788,0.2791,0.2799,0.2802,0.276,0.276,0.276,0.276,0,0.285,0.2851,0.2858,0.2848,0.2846,0.2851,0.2834,0.2834,0.2822,0.2812,0.2816,0.2806,0.2801,0.2801,0.2791,0.2806,0.2801,0.2789,0.2773,0.2797,0.2804,0.2807,0.2763,0.2762,0.2762,0.2761,0,0,0.2901,0.288,0.2883,0.2878,0.2864,0.2864,0.2868,0.2862,0.2862,0.2856,0.2858,0.2856,0.2844,0.2841,0.2829,0.2833,0.2854,0.282,0.282,0.2827,0.2869,0.2878,0.2882,0.2844,0.2845,0.2845,0.2869,0,0.2929,0.2934,0.2917,0.2927,0.2927,0.2905,0.2908,0.29,0.289,0.2889,0.2877,0.2876,0.2861,0.2859,0.2862,0.2851,0.2862,0.2848,0.2846,0.2847,0.285,0.2886,0.2896,0.292,0.2872,0.2873,0.2873,0,0.2962,0.2956,0.2965,0.295,0.2949,0.2953,0.2945,0.2944,0.2934,0.2927,0.2922,0.2907,0.2909,0.2893,0.2895,0.2887,0.2885,0.2879,0.2879,0.2879,0.2862,0.2887,0.2927,0.293,0.2878,0.2877,0.2877,0,0.2998,0.2992,0.2997,0.2993,0.2975,0.2978,0.297,0.2959,0.2957,0.295,0.2948,0.2943,0.294,0.2935,0.2919,0.2909,0.2923,0.2906,0.2917,0.2917,0.2921,0.2921,0.2962,0.292,0.292,0.292,0.2919,0,0.3031,0.3037,0.3012,0.3015,0.3021,0.3002,0.3008,0.2999,0.2989,0.2989,0.297,0.2971,0.295,0.2948,0.2935,0.2939,0.2937,0.2931,0.2928,0.2933,0.2934,0.2932,0.293,0.292,0.292,0.292,0.292,0,0.3072,0.3056,0.3059,0.3041,0.3037,0.3042,0.3027,0.3029,0.3017,0.3017,0.3016,0.2998,0.2995,0.2978,0.2971,0.2963,0.297,0.2963,0.2974,0.2971,0.2983,0.2982,0.3023,0.3028,0.2983,0.2984,0.2984,0,0.3094,0.3099,0.3081,0.3079,0.3073,0.3071,0.3068,0.3048,0.3046,0.3034,0.3037,0.3031,0.3026,0.3022,0.3008,0.3002,0.2995,0.301,0.2994,0.2999,0.2995,0.2995,0.2995,0.3013,0.3014,0.3014,0.3015,0,0.3135,0.3127,0.3123,0.3116,0.3112,0.3106,0.3098,0.3098,0.3076,0.3074,0.307,0.3066,0.3058,0.3053,0.3044,0.3037,0.3022,0.302,0.3022,0.3027,0.3033,0.303,0.2983,0.3019,0.3019,0.3018,0.3018,0.3018,0.3168,0.317,0.3158,0.3153,0.3145,0.3138,0.3139,0.3126,0.3122,0.3114,0.3103,0.31,0.3088,0.3075,0.3068,0.3066,0.3058,0.3061,0.3062,0.3063,0.3065,0.3033,0.3064,0.3064,0.3064,0.3064,0.3064,0,0.3208,0.3198,0.3194,0.3184,0.318,0.3166,0.3156,0.3154,0.3152,0.3142,0.3137,0.3132,0.3127,0.3111,0.3104,0.3105,0.3098,0.3104,0.3104,0.3102,0.3073,0.3072,0.3109,0.3109,0.3109,0.3109,0.3109,0.3109,0.3228,0.3231,0.322,0.3219,0.3209,0.3206,0.3201,0.3195,0.3186,0.3181,0.3176,0.3166,0.3154,0.3146,0.314,0.3135,0.3134,0.3142,0.3135,0.3108,0.3104,0.31,0.3099,0.3141,0.3141,0.3164,0.3164,0.3164]}]]